CZ-2C R/B, 46811

Orbit data source: Space-Track

CZ-2C R/B, 46811 is space debris in LEO originally from a launch on Mon, 26 Oct 2020 UTC launched from the Xichang Space Center, China (XSC). Debris objects in space refer to the collection of defunct objects orbiting the Earth. Examples of debris include non-operational satellites, rocket bodies, and fragments generated from explosions, collisions, or faulty payload assembly.

Not visible in the next 10 days
CZ-2C R/B details
Identifier
46811, 2020-076E
Orbit
LEO
Last TLE update8 hours ago
Origin
Flag of CNCASC (CN / PRC)
ManufacturerCALT
MissionSpacecraft
Bus & MotorCZ-2 STAGE 2, Unknown motor
Mass~3,800 kg wet, ~3,800 kg dry
Launch date (UTC)
2020-10-26 (4 years ago)
Launch vehicleUnknown
Launch site
Xichang Space Center, China (XSC)
Object type
Payload
Rocket body
Debris
Shape & HBRCyl, 7.49 m
Radar Cross Section23.715 m², Large (>1 m²)

Expand to show TLE details & history

TLE from 8 hours ago
0 CZ-2C R/B
1 46811U 20076E   24361.14253889  .00387299  58871-4  97417-3 0  9993
2 46811  35.3027 345.7030 0018819 106.3916 253.8897 15.94241859232947
Epoch: 2024-12-26T03:25Z
Definitive object data (Epoch: 2024-12-26T03:25:15.36Z)
Latitude0.00002°
Longitude-160.73715°
Altitude292.837 km
Speed7.732 km/s
True Right ascension23h 02m 48s
True Declination0° 00' 00"
Sunlit
Object was in daylight at TLE epoch
Visualization TLE readout
Latitude21.08983°
Longitude-130.17716°
Altitude284.29 km
Speed7.744 km/s
Apparent Right ascension23h 55m 46s
Apparent Declination-9° 09' 22"
Sunlit
Object is in full shadow
Visualization observer readout
Local Sidereal Time10:26:56
Azimuth321.222° NNW
Elevation-53.432°
Doppler factor1
Orbital elements
Apogee altitude306.285 km
Perigee altitude281.173 km
Semi-major axis6,671.866 km
Eccentricity0.0018819
Inclination35.3027°
RAAN345.703°
Arg. of periapsis106.3916°
True anomaly253.68265°
Mean anomaly253.8897°
Eccentric anomaly253.78616°
Mean motion3.98265 °/min
BSTAR0.00097417
Orbital period90.39 mins
Loading maneuver chart data...
Loading historical data...
Loading historical data...
Loading historical data...
Loading historical data...
Loading historical data...
Loading historical data...
Loading historical data...
Other satellites on launch #76 in the year 2020 (2020-10-26 UTC)

CZ-2C R/B Visibility forecast

Observer location: undefined°, undefined

CZ-2C R/B is not visible in the next 10 days
Span
Click to sort rows by Start time (UTC) header in descending order
Start Az.
Max El. time (UTC)
Max El. Az.
Max El.
End time (UTC)
End Az.
|